QFA36 YMML-YWLM

Flight info

Callsign QFA36
Flight time 1h 12m
Altitude 37000
Route YMML/34 N0455F370 DCT ML H129 DOSEL Y59 TESAT H252 EKIPU DCT WLM DCT YWLM/12
Aircraft A321/L-V/N

Departure

Time 2026-04-22 03:50
Airport Melbourne Airport (YMML)

Arrival

Time 2026-04-22 05:02
Airport Newcastle Airport (YWLM)
Time Latitude Longitude Altitude Speed Heading
2026-04-22 03:09 -37.67135 144.84586 396 ft 0 kts 352°
2026-04-22 03:23 -37.67151 144.84589 396 ft 2 kts 350°
2026-04-22 03:23 -37.67167 144.84592 396 ft 2 kts 351°
2026-04-22 03:23 -37.67181 144.84593 396 ft 0 kts 351°
2026-04-22 03:23 -37.67196 144.84602 397 ft 2 kts 306°
2026-04-22 03:24 -37.67201 144.84621 398 ft 0 kts 265°
2026-04-22 03:24 -37.67200 144.84630 399 ft 0 kts 262°
2026-04-22 03:44 -37.67204 144.84590 395 ft 13 kts 263°
2026-04-22 03:44 -37.67200 144.84456 387 ft 14 kts 265°
2026-04-22 03:44 -37.67224 144.84312 382 ft 17 kts 227°
2026-04-22 03:45 -37.67343 144.84297 380 ft 18 kts 173°
2026-04-22 03:45 -37.67472 144.84322 378 ft 18 kts 171°
2026-04-22 03:45 -37.67604 144.84343 376 ft 19 kts 172°
2026-04-22 03:45 -37.67748 144.84370 372 ft 21 kts 171°
2026-04-22 03:46 -37.67903 144.84402 368 ft 23 kts 171°
2026-04-22 03:46 -37.68075 144.84431 361 ft 25 kts 171°
2026-04-22 03:46 -37.68251 144.84465 353 ft 25 kts 171°
2026-04-22 03:46 -37.68405 144.84424 345 ft 21 kts 214°
2026-04-22 03:47 -37.68530 144.84309 341 ft 13 kts 234°
2026-04-22 03:47 -37.68553 144.84241 341 ft 0 kts 263°
2026-04-22 03:48 -37.68553 144.84235 341 ft 5 kts 263°
2026-04-22 03:48 -37.68545 144.84139 343 ft 10 kts 296°
2026-04-22 03:48 -37.68494 144.84088 345 ft 0 kts 344°
2026-04-22 03:49 -37.68275 144.84032 352 ft 68 kts 357°
2026-04-22 03:49 -37.67477 144.83893 377 ft 137 kts 351°
2026-04-22 03:49 -37.66361 144.83739 742 ft 159 kts 356°
2026-04-22 03:50 -37.65274 144.83598 1442 ft 159 kts 356°
2026-04-22 03:50 -37.64201 144.83810 2119 ft 161 kts 31°
2026-04-22 03:50 -37.63339 144.84776 2603 ft 175 kts 43°
2026-04-22 03:50 -37.62479 144.85913 2934 ft 187 kts 44°
2026-04-22 03:51 -37.61533 144.87137 3230 ft 202 kts 44°
2026-04-22 03:51 -37.60473 144.88457 3541 ft 218 kts 43°
2026-04-22 03:51 -37.59321 144.89851 3772 ft 239 kts 42°
2026-04-22 03:51 -37.58080 144.91328 4113 ft 256 kts 43°
2026-04-22 03:52 -37.56749 144.92899 4661 ft 266 kts 43°
2026-04-22 03:52 -37.55719 144.94104 5216 ft 268 kts 43°
2026-04-22 03:52 -37.54364 144.95689 5954 ft 270 kts 44°
2026-04-22 03:52 -37.52982 144.97304 6671 ft 274 kts 44°
2026-04-22 03:53 -37.51600 144.98918 7377 ft 277 kts 44°
2026-04-22 03:53 -37.50169 145.00589 8100 ft 281 kts 44°
2026-04-22 03:53 -37.48737 145.02257 8831 ft 284 kts 44°
2026-04-22 03:53 -37.47284 145.03946 9573 ft 287 kts 44°
2026-04-22 03:54 -37.45829 145.05641 10294 ft 290 kts 44°
2026-04-22 03:54 -37.44338 145.07375 10871 ft 298 kts 43°
2026-04-22 03:54 -37.42786 145.09178 11191 ft 315 kts 43°
2026-04-22 03:54 -37.41119 145.11110 11495 ft 332 kts 43°
2026-04-22 03:55 -37.39391 145.13112 11778 ft 348 kts 43°
2026-04-22 03:55 -37.37585 145.15202 12047 ft 363 kts 43°
2026-04-22 03:55 -37.35678 145.17410 12308 ft 376 kts 43°
2026-04-22 03:55 -37.33755 145.19632 12736 ft 384 kts 42°
2026-04-22 03:56 -37.31764 145.21933 13323 ft 387 kts 42°
2026-04-22 03:56 -37.29797 145.24203 13877 ft 390 kts 42°
2026-04-22 03:56 -37.27788 145.26521 14424 ft 393 kts 42°
2026-04-22 03:56 -37.25770 145.28845 14961 ft 397 kts 42°
2026-04-22 03:57 -37.23735 145.31187 15479 ft 400 kts 42°
2026-04-22 03:57 -37.21698 145.33530 15986 ft 403 kts 42°
2026-04-22 03:57 -37.19631 145.35910 16489 ft 406 kts 42°
2026-04-22 03:57 -37.17598 145.38414 16990 ft 409 kts 46°
2026-04-22 03:58 -37.15699 145.41092 17475 ft 413 kts 50°
2026-04-22 03:58 -37.13956 145.43926 17943 ft 416 kts 53°
2026-04-22 03:58 -37.12272 145.46854 18416 ft 418 kts 54°
2026-04-22 03:58 -37.10580 145.49815 18876 ft 421 kts 54°
2026-04-22 03:59 -37.08879 145.52794 19333 ft 423 kts 54°
2026-04-22 03:59 -37.07153 145.55809 19778 ft 425 kts 54°
2026-04-22 03:59 -37.05429 145.58812 20206 ft 427 kts 54°
2026-04-22 03:59 -37.03689 145.61838 20622 ft 430 kts 54°
2026-04-22 04:00 -37.01941 145.64873 21025 ft 432 kts 54°
2026-04-22 04:00 -37.00180 145.67929 21422 ft 435 kts 53°
2026-04-22 04:00 -36.98416 145.70987 21807 ft 437 kts 53°
2026-04-22 04:00 -36.96630 145.74080 22202 ft 439 kts 53°
2026-04-22 04:01 -36.94844 145.77165 22584 ft 441 kts 53°
2026-04-22 04:01 -36.93038 145.80286 22956 ft 443 kts 53°
2026-04-22 04:01 -36.91248 145.83375 23327 ft 445 kts 53°
2026-04-22 04:01 -36.89426 145.86517 23680 ft 447 kts 53°
2026-04-22 04:02 -36.87612 145.89644 24006 ft 449 kts 53°
2026-04-22 04:02 -36.85766 145.92822 24324 ft 452 kts 53°
2026-04-22 04:02 -36.83917 145.95999 24627 ft 454 kts 53°
2026-04-22 04:02 -36.82070 145.99173 24919 ft 457 kts 53°
2026-04-22 04:03 -36.80183 146.02411 25216 ft 459 kts 53°
2026-04-22 04:03 -36.78291 146.05655 25509 ft 462 kts 53°
2026-04-22 04:03 -36.76402 146.08891 25784 ft 464 kts 53°
2026-04-22 04:03 -36.74518 146.12112 26139 ft 464 kts 53°
2026-04-22 04:04 -36.72615 146.15366 26546 ft 463 kts 53°
2026-04-22 04:04 -36.70716 146.18613 26941 ft 463 kts 53°
2026-04-22 04:04 -36.68828 146.21834 27310 ft 463 kts 53°
2026-04-22 04:04 -36.66950 146.25037 27669 ft 463 kts 53°
2026-04-22 04:05 -36.65050 146.28273 28055 ft 463 kts 53°
2026-04-22 04:05 -36.63161 146.31486 28438 ft 462 kts 53°
2026-04-22 04:05 -36.61252 146.34731 28812 ft 462 kts 53°
2026-04-22 04:05 -36.59363 146.37939 29173 ft 462 kts 53°
2026-04-22 04:06 -36.57460 146.41168 29543 ft 462 kts 53°
2026-04-22 04:06 -36.55562 146.44386 29923 ft 462 kts 53°
2026-04-22 04:06 -36.53684 146.47565 30281 ft 462 kts 53°
2026-04-22 04:06 -36.51777 146.50790 30623 ft 462 kts 53°
2026-04-22 04:07 -36.49893 146.53973 30947 ft 462 kts 53°
2026-04-22 04:07 -36.47984 146.57196 31275 ft 462 kts 53°
2026-04-22 04:07 -36.46094 146.60385 31593 ft 463 kts 53°
2026-04-22 04:07 -36.44174 146.63621 31892 ft 463 kts 53°
2026-04-22 04:08 -36.42260 146.66846 32200 ft 463 kts 52°
2026-04-22 04:08 -36.40373 146.70023 32496 ft 464 kts 52°
2026-04-22 04:08 -36.38468 146.73224 32788 ft 464 kts 52°
2026-04-22 04:08 -36.36541 146.76460 33090 ft 464 kts 52°
2026-04-22 04:09 -36.34620 146.79683 33369 ft 464 kts 52°
2026-04-22 04:09 -36.32715 146.82875 33640 ft 464 kts 52°
2026-04-22 04:09 -36.30789 146.86098 33904 ft 464 kts 52°
2026-04-22 04:09 -36.28880 146.89290 34153 ft 465 kts 52°
2026-04-22 04:10 -36.26959 146.92502 34451 ft 465 kts 52°
2026-04-22 04:10 -36.25032 146.95720 34750 ft 465 kts 52°
2026-04-22 04:10 -36.23121 146.98904 35065 ft 465 kts 52°
2026-04-22 04:10 -36.21196 147.02113 35389 ft 464 kts 52°
2026-04-22 04:11 -36.19294 147.05281 35668 ft 464 kts 52°
2026-04-22 04:11 -36.17370 147.08481 35879 ft 465 kts 52°
2026-04-22 04:11 -36.15433 147.11700 36042 ft 467 kts 52°
2026-04-22 04:11 -36.13503 147.14906 36249 ft 467 kts 52°
2026-04-22 04:12 -36.11556 147.18137 36450 ft 468 kts 52°
2026-04-22 04:12 -36.09615 147.21353 36615 ft 469 kts 52°
2026-04-22 04:12 -36.07661 147.24589 36802 ft 470 kts 52°
2026-04-22 04:12 -36.05706 147.27821 36969 ft 470 kts 52°
2026-04-22 04:13 -36.03762 147.31033 37113 ft 472 kts 52°
2026-04-22 04:13 -36.01793 147.34283 37236 ft 473 kts 52°
2026-04-22 04:13 -35.97828 147.40819 37281 ft 475 kts 52°
2026-04-22 04:14 -35.93883 147.47308 37280 ft 475 kts 52°
2026-04-22 04:14 -35.89914 147.53825 37280 ft 476 kts 52°
2026-04-22 04:15 -35.85952 147.60318 37280 ft 476 kts 52°
2026-04-22 04:15 -35.81975 147.66826 37280 ft 476 kts 52°
2026-04-22 04:16 -35.75980 147.76616 37285 ft 476 kts 52°
2026-04-22 04:17 -35.71974 147.83142 37283 ft 477 kts 52°
2026-04-22 04:17 -35.67925 147.89723 37281 ft 478 kts 52°
2026-04-22 04:18 -35.63878 147.96284 37285 ft 478 kts 52°
2026-04-22 04:18 -35.59849 148.02806 37285 ft 479 kts 52°
2026-04-22 04:19 -35.55814 148.09328 37281 ft 480 kts 52°
2026-04-22 04:19 -35.51780 148.15836 37283 ft 480 kts 52°
2026-04-22 04:20 -35.47746 148.22328 37284 ft 480 kts 52°
2026-04-22 04:20 -35.43691 148.28844 37280 ft 480 kts 52°
2026-04-22 04:21 -35.39646 148.35332 37288 ft 480 kts 52°
2026-04-22 04:21 -35.35585 148.41835 37292 ft 482 kts 52°
2026-04-22 04:22 -35.31547 148.48288 37290 ft 482 kts 52°
2026-04-22 04:22 -35.27476 148.54782 37287 ft 482 kts 52°
2026-04-22 04:23 -35.23388 148.61291 37290 ft 482 kts 53°
2026-04-22 04:23 -35.19318 148.67758 37279 ft 483 kts 52°
2026-04-22 04:24 -35.15216 148.74265 37286 ft 484 kts 52°
2026-04-22 04:24 -35.11122 148.80748 37278 ft 485 kts 52°
2026-04-22 04:25 -35.06994 148.87274 37279 ft 485 kts 52°
2026-04-22 04:25 -35.02879 148.93762 37282 ft 485 kts 52°
2026-04-22 04:26 -34.98770 149.00229 37286 ft 486 kts 52°
2026-04-22 04:26 -34.94621 149.06751 37280 ft 487 kts 52°
2026-04-22 04:27 -34.90475 149.13255 37281 ft 488 kts 52°
2026-04-22 04:27 -34.86326 149.19751 37280 ft 488 kts 52°
2026-04-22 04:28 -34.82150 149.26276 37278 ft 488 kts 52°
2026-04-22 04:28 -34.77977 149.32782 37281 ft 488 kts 52°
2026-04-22 04:29 -34.74008 149.39423 37282 ft 488 kts 58°
2026-04-22 04:29 -34.70639 149.46585 37286 ft 488 kts 64°
2026-04-22 04:30 -34.67500 149.53848 37290 ft 489 kts 64°
2026-04-22 04:30 -34.64333 149.61136 37298 ft 490 kts 64°
2026-04-22 04:31 -34.61135 149.68443 37301 ft 491 kts 63°
2026-04-22 04:31 -34.57932 149.75743 37304 ft 491 kts 63°
2026-04-22 04:32 -34.54734 149.83008 37300 ft 491 kts 63°
2026-04-22 04:32 -34.51521 149.90292 37307 ft 492 kts 63°
2026-04-22 04:33 -34.48298 149.97594 37304 ft 492 kts 63°
2026-04-22 04:33 -34.45076 150.04872 37309 ft 493 kts 63°
2026-04-22 04:34 -34.41828 150.12195 37307 ft 493 kts 63°
2026-04-22 04:34 -34.38589 150.19475 37306 ft 493 kts 63°
2026-04-22 04:35 -34.35354 150.26737 37310 ft 493 kts 63°
2026-04-22 04:35 -34.32100 150.34019 37306 ft 493 kts 64°
2026-04-22 04:36 -34.28840 150.41299 37302 ft 494 kts 64°
2026-04-22 04:36 -34.25585 150.48613 37292 ft 495 kts 64°
2026-04-22 04:37 -34.22343 150.55920 37293 ft 495 kts 64°
2026-04-22 04:37 -34.19106 150.63202 37289 ft 495 kts 64°
2026-04-22 04:38 -34.15851 150.70499 37287 ft 494 kts 63°
2026-04-22 04:38 -34.14240 150.74100 37109 ft 489 kts 64°
2026-04-22 04:38 -34.12622 150.77714 36532 ft 487 kts 64°
2026-04-22 04:38 -34.11014 150.81303 35826 ft 486 kts 64°
2026-04-22 04:39 -34.09404 150.84894 35135 ft 484 kts 64°
2026-04-22 04:39 -34.07778 150.88512 34388 ft 484 kts 64°
2026-04-22 04:39 -34.06170 150.92093 33651 ft 484 kts 65°
2026-04-22 04:39 -34.04520 150.95764 32922 ft 485 kts 65°
2026-04-22 04:40 -34.02899 150.99370 32224 ft 485 kts 65°
2026-04-22 04:40 -34.01227 151.03082 31523 ft 484 kts 65°
2026-04-22 04:40 -33.99491 151.06924 30760 ft 483 kts 65°
2026-04-22 04:40 -33.97813 151.10640 29997 ft 483 kts 65°
2026-04-22 04:41 -33.96185 151.14169 29191 ft 483 kts 63°
2026-04-22 04:41 -33.94394 151.17624 28329 ft 485 kts 60°
2026-04-22 04:41 -33.92461 151.20903 27444 ft 488 kts 57°
2026-04-22 04:41 -33.90288 151.24165 26479 ft 490 kts 54°
2026-04-22 04:42 -33.87907 151.27568 25411 ft 491 kts 54°
2026-04-22 04:42 -33.85708 151.30692 24567 ft 487 kts 54°
2026-04-22 04:42 -33.83548 151.33757 23982 ft 478 kts 54°
2026-04-22 04:42 -33.81287 151.36972 23265 ft 471 kts 54°
2026-04-22 04:43 -33.79031 151.40190 22534 ft 465 kts 54°
2026-04-22 04:43 -33.76841 151.43315 21838 ft 459 kts 54°
2026-04-22 04:43 -33.74701 151.46368 21155 ft 452 kts 54°
2026-04-22 04:43 -33.72601 151.49359 20501 ft 446 kts 54°
2026-04-22 04:44 -33.70597 151.52214 19851 ft 441 kts 54°
2026-04-22 04:44 -33.68623 151.55020 19211 ft 435 kts 54°
2026-04-22 04:44 -33.66639 151.57738 18582 ft 433 kts 50°
2026-04-22 04:44 -33.64264 151.59984 17938 ft 435 kts 36°
2026-04-22 04:45 -33.61552 151.61530 17360 ft 435 kts 23°
2026-04-22 04:45 -33.58647 151.62506 16772 ft 432 kts 17°
2026-04-22 04:45 -33.55735 151.63344 16184 ft 427 kts 16°
2026-04-22 04:45 -33.52879 151.64156 15597 ft 423 kts 17°
2026-04-22 04:46 -33.50022 151.64987 15017 ft 418 kts 17°
2026-04-22 04:46 -33.47245 151.65819 14445 ft 413 kts 17°
2026-04-22 04:46 -33.44473 151.66656 13871 ft 409 kts 17°
2026-04-22 04:46 -33.41634 151.67529 13265 ft 404 kts 17°
2026-04-22 04:47 -33.38697 151.68449 12612 ft 400 kts 17°
2026-04-22 04:47 -33.36007 151.69293 11995 ft 396 kts 17°
2026-04-22 04:47 -33.33357 151.70122 11406 ft 391 kts 17°
2026-04-22 04:47 -33.30736 151.70937 10803 ft 387 kts 17°
2026-04-22 04:48 -33.28149 151.71741 10185 ft 383 kts 17°
2026-04-22 04:48 -33.25513 151.72560 9579 ft 378 kts 17°
2026-04-22 04:48 -33.22991 151.73317 9207 ft 368 kts 14°
2026-04-22 04:48 -33.20437 151.73439 8940 ft 356 kts 354°
2026-04-22 04:49 -33.18073 151.72635 8515 ft 337 kts 336°
2026-04-22 04:49 -33.15971 151.71403 8096 ft 318 kts 333°
2026-04-22 04:49 -33.14012 151.70186 7730 ft 302 kts 333°
2026-04-22 04:49 -33.12122 151.69016 7478 ft 292 kts 333°
2026-04-22 04:50 -33.10269 151.67886 7128 ft 289 kts 333°
2026-04-22 04:50 -33.08481 151.66809 6767 ft 287 kts 333°
2026-04-22 04:50 -33.06702 151.65745 6408 ft 285 kts 333°
2026-04-22 04:50 -33.04933 151.64694 6053 ft 283 kts 333°
2026-04-22 04:51 -33.03164 151.63644 5698 ft 281 kts 333°
2026-04-22 04:51 -33.01404 151.62601 5321 ft 280 kts 333°
2026-04-22 04:51 -32.99678 151.61578 4968 ft 278 kts 333°
2026-04-22 04:51 -32.97937 151.60547 4612 ft 277 kts 334°
2026-04-22 04:52 -32.96229 151.59537 4262 ft 275 kts 334°
2026-04-22 04:52 -32.94517 151.58525 3883 ft 274 kts 334°
2026-04-22 04:52 -32.92817 151.57520 3522 ft 273 kts 334°
2026-04-22 04:52 -32.91096 151.56570 3388 ft 272 kts 339°
2026-04-22 04:53 -32.89271 151.55898 3382 ft 271 kts 348°
2026-04-22 04:53 -32.87429 151.55482 3148 ft 268 kts 351°
2026-04-22 04:53 -32.85595 151.55131 2771 ft 268 kts 352°
2026-04-22 04:53 -32.83741 151.54784 2684 ft 269 kts 352°
2026-04-22 04:54 -32.81874 151.54427 2683 ft 271 kts 352°
2026-04-22 04:54 -32.80021 151.54066 2684 ft 271 kts 352°
2026-04-22 04:54 -32.78149 151.53697 2682 ft 271 kts 351°
2026-04-22 04:54 -32.76296 151.53409 2674 ft 269 kts
2026-04-22 04:55 -32.74524 151.53998 2664 ft 263 kts 34°
2026-04-22 04:55 -32.73096 151.55347 2676 ft 262 kts 44°
2026-04-22 04:55 -32.71795 151.56842 2668 ft 259 kts 53°
2026-04-22 04:55 -32.70835 151.58620 2667 ft 257 kts 66°
2026-04-22 04:56 -32.70077 151.60533 2666 ft 250 kts 69°
2026-04-22 04:56 -32.69395 151.62318 2648 ft 226 kts 69°
2026-04-22 04:56 -32.68775 151.63924 2638 ft 208 kts 69°
2026-04-22 04:56 -32.68191 151.65436 2725 ft 190 kts 72°
2026-04-22 04:57 -32.68110 151.66830 2697 ft 158 kts 108°
2026-04-22 04:57 -32.68575 151.67943 2663 ft 146 kts 126°
2026-04-22 04:57 -32.69177 151.68898 2664 ft 145 kts 130°
2026-04-22 04:57 -32.69824 151.69821 2626 ft 145 kts 131°
2026-04-22 04:58 -32.70472 151.70726 2454 ft 145 kts 132°
2026-04-22 04:58 -32.71124 151.71639 2262 ft 144 kts 132°
2026-04-22 04:58 -32.71778 151.72554 2075 ft 144 kts 132°
2026-04-22 04:58 -32.72418 151.73454 1886 ft 143 kts 133°
2026-04-22 04:59 -32.73068 151.74365 1699 ft 143 kts 132°
2026-04-22 04:59 -32.73705 151.75258 1517 ft 143 kts 132°
2026-04-22 04:59 -32.74352 151.76164 1330 ft 143 kts 132°
2026-04-22 04:59 -32.74990 151.77058 1145 ft 142 kts 133°
2026-04-22 05:00 -32.75633 151.77959 962 ft 142 kts 133°
2026-04-22 05:00 -32.76273 151.78854 776 ft 141 kts 133°
2026-04-22 05:00 -32.76910 151.79746 595 ft 141 kts 133°
2026-04-22 05:00 -32.77551 151.80641 410 ft 141 kts 133°
2026-04-22 05:01 -32.78227 151.81586 210 ft 137 kts 133°
2026-04-22 05:01 -32.78853 151.82461 42 ft 128 kts 133°
2026-04-22 05:01 -32.79327 151.83112 34 ft 62 kts 129°
2026-04-22 05:01 -32.79600 151.83496 34 ft 53 kts 130°
2026-04-22 05:02 -32.79840 151.83823 34 ft 38 kts 143°
2026-04-22 05:02 -32.80002 151.83841 34 ft 18 kts 187°
2026-04-22 05:02 -32.80111 151.83820 34 ft 13 kts 185°
2026-04-22 05:02 -32.80196 151.83862 34 ft 13 kts 135°
2026-04-22 05:03 -32.80253 151.83949 34 ft 13 kts 127°
2026-04-22 05:03 -32.80313 151.84032 34 ft 4 kts 133°
2026-04-22 05:03 -32.80347 151.84073 34 ft 15 kts 133°
2026-04-22 05:03 -32.80370 151.84103 34 ft 6 kts 127°
2026-04-22 05:04 -32.80386 151.84126 34 ft 3 kts 137°
2026-04-22 05:04 -32.80403 151.84126 34 ft 2 kts 225°
2026-04-22 05:04 -32.80407 151.84100 34 ft 3 kts 269°
2026-04-22 05:04 -32.80407 151.84087 34 ft 1 kts 270°
2026-04-22 05:05 -32.80407 151.84084 34 ft 0 kts 270°